World > North America > United States > Washington

Chico, Washington Regional Weather

Lat: 47.61N, Lon: 122.71W
Wx Zone: WAZ558Web Search

Pass this page to a friend. Tell them to point their camera at the QR Code near the bottom of this page.

Feedback


°F Click to change Chico hourly weather to Imperial units.Click to change Chico hourly weather to Metric units. °C
Chico Weather Map
UTC Time: 4/11/2021, 04:04
Your Time:

Chico, WA Regional Weather

Expires:202104110400;;362901
ASUS46 KSEW 110320
RWRWA 

WASHINGTON REGIONAL WEATHER ROUNDUP
NATIONAL WEATHER SERVICE SEATTLE WA
800 PM PDT SAT APR 10 2021

NOTE:"FAIR" INDICATES FEW OR NO CLOUDS BELOW 12,000 FEET WITH NO 
SIGNIFICANT WEATHER AND/OR OBSTRUCTIONS TO VISIBILITY.


WAZ507-509-555>559-110400-
SEATTLE, TACOMA, EVERETT, AND VICINITY
  
CITY           SKY/WX    TMP DP  RH WIND       PRES   REMARKS
EVERETT        MOCLDY    44  28  53 VRB7      30.30R                  
BOEING FIELD   MOCLDY    45  28  51 VRB7      30.31R                  
RENTON         CLOUDY    46  31  55 N9        30.30R                  
SEATAC AIRPORT MOCLDY    46  30  53 N16       30.29R                  
JBLM-MCCHORD   MOCLDY    47  26  45 NW3       30.29R                  
PUYALLUP       DRIZZLE   45  30  57 CALM      30.29R                  
BREMERTON      MOCLDY    44  32  62 NE8       30.29R                  
JBLM-FT LEWIS  PTCLDY    46  26  47 SW6       30.28R                  
TACOMA NARROWS CLOUDY    45  27  49 NE5       30.29R                  
$$
 

SKY/WX - Weather  TMP - Temperature  DP - Dew Point  RH - Relative Humidity
WIND - Wind Direction/Speed PRES - Barometric Pressure VSB - Visibility
WCI - Wind Chill Index E13G22 Wind - East Wind 13 mph/Gusts of 22 mph